Date String (YYYY-MM-DD hh:mm:ss) UTC,Instrument flags,absolute air pressure of the measurement (hPa),sample flow rate (lpm),inlet stack bypass flow (lpm),air temperature of the measurement (°C),ambient temperature measured by the external sensor (°C),aerosol sample conditioner tube jacket temperature (°C),OPC LED temperature (°C),internal box temperature (°C),relative humidity of the measurement (%),span deviation,mass concentration of particles derived from Lorenz-Mie calculation of OPC scattering (μg/m³),mass concentration of particles derived from Lorenz-Mie calculation of OPC scattering (μg/m³),mass concentration of particles derived from Lorenz-Mie calculation of OPC scattering (μg/m³)
DateTimeUTC,F1_M11,P_M11,Q1_M11,Q2_M11,T1_M11,T2_M11,T3_M11,T4_M11,T5_M11,U1_M11,ZSPAN_M11,X2_M11,X0_M11,X1_M11
2023-06-14 09:00:00,SystemResetWarning,0827.5,5.00,000.00,029.7,027.9,000.0,038.3,031.2,18.7,0000.0,0002.25,0003.12,0001.93
2023-06-14 09:01:00,SystemResetWarning,0827.5,5.00,000.00,029.7,027.9,000.0,038.3,031.1,18.9,0000.0,0002.21,0003.05,0001.91
2023-06-14 09:02:00,SystemResetWarning,0827.6,5.00,000.00,029.7,027.9,000.0,038.3,031.1,18.4,0000.0,0002.18,0003.00,0001.88
2023-06-14 09:03:00,SystemResetWarning,0827.6,5.00,000.00,029.7,027.9,000.0,038.3,031.1,18.2,0000.0,0002.18,0003.00,0001.86
2023-06-14 09:04:00,SystemResetWarning,0827.6,4.99,000.00,029.6,027.9,000.0,038.2,031.1,18.1,0000.0,0002.18,0003.03,0001.86
2023-06-14 09:05:00,SystemResetWarning,0827.6,4.99,000.00,029.6,027.9,000.0,038.2,031.1,18.0,0000.0,0002.17,0003.06,0001.84
2023-06-14 09:06:00,SystemResetWarning,0827.6,5.00,000.00,029.6,027.9,000.0,038.2,031.1,18.0,0000.0,0002.16,0003.04,0001.83
2023-06-14 09:07:00,SystemResetWarning,0827.5,5.00,000.00,029.6,027.9,000.0,038.2,031.1,18.1,0000.0,0002.15,0002.99,0001.82
2023-06-14 09:08:00,SystemResetWarning,0827.5,5.01,000.00,029.6,027.9,000.0,038.2,031.1,18.3,0000.0,0002.15,0003.00,0001.81
2023-06-14 09:09:00,SystemResetWarning,0827.5,5.01,000.00,029.6,027.9,000.0,038.2,031.1,18.4,0000.0,0002.11,0002.97,0001.79
2023-06-14 09:10:00,SystemResetWarning,0827.6,5.01,000.00,029.6,027.9,000.0,038.2,031.1,18.2,0000.0,0002.11,0003.00,0001.78
2023-06-14 09:11:00,SystemResetWarning,0827.5,4.99,000.00,029.6,027.9,000.0,038.2,031.1,18.1,0000.0,0002.13,0003.06,0001.79
2023-06-14 09:12:00,SystemResetWarning,0827.5,4.99,000.00,029.7,027.9,000.0,038.2,031.1,18.1,0000.0,0002.14,0003.11,0001.79
2023-06-14 09:13:00,SystemResetWarning,0827.5,4.99,000.00,029.7,027.9,000.0,038.2,031.1,18.0,0000.0,0002.17,0003.20,0001.81
2023-06-14 09:14:00,SystemResetWarning,0827.7,5.00,000.00,029.7,027.9,000.0,038.2,031.1,18.0,0000.0,0002.18,0003.21,0001.80
2023-06-14 09:15:00,SystemResetWarning,0827.7,5.00,000.00,029.7,027.9,000.0,038.2,031.1,18.1,0000.0,0002.20,0003.30,0001.81
2023-06-14 09:16:00,SystemResetWarning,0827.4,5.01,000.00,029.7,027.9,000.0,038.2,031.1,18.1,0000.0,0002.22,0003.48,0001.82
2023-06-14 09:17:00,SystemResetWarning,0827.6,5.01,000.00,029.7,027.9,000.0,038.2,031.1,18.2,0000.0,0002.28,0003.65,0001.83
2023-06-14 09:18:00,SystemResetWarning,0827.7,5.00,000.00,029.7,027.9,000.0,038.2,031.1,18.7,0000.0,0002.32,0003.71,0001.84
2023-06-14 09:19:00,SystemResetWarning,0828.0,5.00,000.00,029.7,027.9,000.0,038.2,031.1,19.2,0000.0,0002.37,0003.73,0001.86
2023-06-14 09:20:00,SystemResetWarning,0827.9,5.00,000.00,029.7,027.9,000.0,038.2,031.1,19.6,0000.0,0002.36,0003.73,0001.88
2023-06-14 09:21:00,SystemResetWarning,0827.6,4.99,000.00,029.7,027.9,000.0,038.2,031.1,19.7,0000.0,0002.34,0003.61,0001.90
2023-06-14 09:22:00,SystemResetWarning,0827.8,5.00,000.00,029.7,027.9,000.0,038.2,031.1,19.8,0000.0,0002.34,0003.54,0001.92
2023-06-14 09:23:00,SystemResetWarning,0827.9,5.00,000.00,029.7,027.9,000.0,038.2,031.1,19.8,0000.0,0002.36,0003.53,0001.94
2023-06-14 09:24:00,SystemResetWarning,0827.7,5.01,000.00,029.7,027.9,000.0,038.2,031.1,19.4,0000.0,0002.36,0003.41,0001.95
2023-06-14 09:25:00,SystemResetWarning,0827.8,5.00,000.00,029.7,027.9,000.0,038.2,031.1,19.0,0000.0,0002.34,0003.36,0001.97
2023-06-14 09:26:00,SystemResetWarning,0828.0,5.00,000.00,029.7,027.9,000.0,038.2,031.1,18.7,0000.0,0002.34,0003.33,0001.99
2023-06-14 09:27:00,SystemResetWarning,0827.6,5.00,000.00,029.7,027.9,000.0,038.2,031.1,18.7,0000.0,0002.33,0003.27,0002.00
2023-06-14 09:28:00,SystemResetWarning,0827.8,5.00,000.00,029.7,027.9,000.0,038.2,031.1,18.8,0000.0,0002.34,0003.64,0002.01
2023-06-14 09:29:00,SystemResetWarning,0827.4,5.00,000.00,029.7,027.9,000.0,038.2,031.1,19.1,0000.0,0002.32,0003.58,0002.00
2023-06-14 09:30:00,SystemResetWarning,0827.4,4.99,000.00,029.7,027.9,000.0,038.2,031.1,19.0,0000.0,0002.31,0003.62,0001.99
2023-06-14 09:31:00,SystemResetWarning,0827.4,5.00,000.00,029.7,027.9,000.0,038.2,031.1,18.8,0000.0,0002.30,0003.58,0001.99
2023-06-14 09:32:00,SystemResetWarning,0827.7,5.00,000.00,029.6,027.9,000.0,038.2,031.1,19.0,0000.0,0002.32,0003.64,0001.98
2023-06-14 09:33:00,SystemResetWarning,0827.8,5.00,000.00,029.6,027.9,000.0,038.2,031.0,19.1,0000.0,0002.31,0003.67,0001.94
2023-06-14 09:34:00,SystemResetWarning,0827.7,4.99,000.00,029.6,027.9,000.0,038.2,031.1,18.9,0000.0,0002.31,0003.82,0001.91
2023-06-14 09:35:00,SystemResetWarning,0827.5,5.00,000.00,029.6,027.9,000.0,038.2,031.1,18.7,0000.0,0002.29,0003.86,0001.88
2023-06-14 09:36:00,SystemResetWarning,0827.5,5.01,000.00,029.6,027.9,000.0,038.2,031.1,18.8,0000.0,0002.26,0004.62,0001.84
2023-06-14 09:37:00,SystemResetWarning,0828.0,5.00,000.00,029.6,027.8,000.0,038.2,031.0,19.1,0000.0,0002.29,0004.84,0001.81
2023-06-14 09:38:00,SystemResetWarning,0828.0,5.00,000.00,029.6,027.8,000.0,038.2,031.0,19.1,0000.0,0002.25,0004.73,0001.77
2023-06-14 09:39:00,SystemResetWarning,0827.9,5.01,000.00,029.6,027.8,000.0,038.2,031.0,18.8,0000.0,0002.21,0005.08,0001.75
2023-06-14 09:40:00,SystemResetWarning,0827.9,4.99,000.00,029.6,027.8,000.0,038.2,031.0,18.4,0000.0,0002.16,0005.27,0001.72
2023-06-14 09:41:00,SystemResetWarning,0827.9,4.99,000.00,029.6,027.8,000.0,038.2,031.0,18.3,0000.0,0002.11,0005.13,0001.71
2023-06-14 09:42:00,SystemResetWarning,0828.0,5.00,000.00,029.6,027.8,000.0,038.2,031.0,18.3,0000.0,0002.06,0005.05,0001.68
2023-06-14 09:43:00,SystemResetWarning,0827.7,5.00,000.00,029.6,027.8,000.0,038.2,031.0,18.4,0000.0,0002.04,0005.00,0001.67
2023-06-14 09:44:00,SystemResetWarning,0827.5,5.00,000.00,029.6,027.8,000.0,038.2,031.0,18.5,0000.0,0002.03,0004.93,0001.68
2023-06-14 09:45:00,SystemResetWarning,0827.4,5.00,000.00,029.6,027.8,000.0,038.2,031.0,18.8,0000.0,0001.97,0004.72,0001.67
2023-06-14 09:46:00,SystemResetWarning,0827.4,5.01,000.00,029.5,027.8,000.0,038.1,030.9,18.9,0000.0,0001.95,0004.62,0001.65
2023-06-14 09:47:00,SystemResetWarning,0827.4,5.00,000.00,029.5,027.8,000.0,038.1,030.9,18.7,0000.0,0001.93,0003.77,0001.64
2023-06-14 09:48:00,SystemResetWarning,0827.4,4.99,000.00,029.5,027.7,000.0,038.1,030.9,18.5,0000.0,0001.87,0003.56,0001.63
2023-06-14 09:49:00,SystemResetWarning,0827.4,4.99,000.00,029.5,027.7,000.0,038.1,030.9,18.4,0000.0,0001.91,0003.70,0001.65
2023-06-14 09:50:00,SystemResetWarning,0827.4,5.01,000.00,029.5,027.7,000.0,038.1,030.9,18.5,0000.0,0001.97,0003.05,0001.68
2023-06-14 09:51:00,SystemResetWarning,0827.4,5.00,000.00,029.5,027.7,000.0,038.1,030.9,18.7,0000.0,0002.02,0002.70,0001.71
2023-06-14 09:52:00,SystemResetWarning,0827.4,5.01,000.00,029.5,027.7,000.0,038.1,031.0,18.7,0000.0,0002.08,0002.82,0001.75
2023-06-14 09:53:00,SystemResetWarning,0827.4,4.99,000.00,029.5,027.7,000.0,038.1,031.0,18.7,0000.0,0002.12,0002.88,0001.78
2023-06-14 09:54:00,SystemResetWarning,0827.4,4.99,000.00,029.5,027.7,000.0,038.1,031.0,18.6,0000.0,0002.12,0002.88,0001.79
2023-06-14 09:55:00,SystemResetWarning,0827.4,5.00,000.00,029.5,027.7,000.0,038.1,031.0,18.6,0000.0,0002.11,0002.88,0001.79
2023-06-14 09:56:00,SystemResetWarning,0827.4,5.01,000.00,029.5,027.7,000.0,038.1,031.0,18.8,0000.0,0002.12,0002.93,0001.78
2023-06-14 09:57:00,SystemResetWarning,0827.4,5.01,000.00,029.5,027.7,000.0,038.1,031.0,18.6,0000.0,0002.12,0002.96,0001.79
2023-06-14 09:58:00,SystemResetWarning,0827.4,5.00,000.00,029.5,027.7,000.0,038.1,031.0,18.4,0000.0,0002.15,0003.85,0001.80
2023-06-14 09:59:00,SystemResetWarning,0827.4,5.00,000.00,029.5,027.7,000.0,038.1,030.9,18.6,0000.0,0002.21,0004.09,0001.82
